Total_Precipitation_Accumulation
0.03 0.07 0.18 0.36 0.99 1.18 0.99 0.59 0.44 0.35 0.34 0.37 0.44 0.43 0.43 0.49 0.62 1.05 0.58 0.20 0.08 0.04 0.06 0.20 0.36 0.34 0.32 0.34 0.35 0.37 0.40 0.41 0.43 0.41 0.38 0.35 0.33 0.35 0.36 0.43 0.46 0.47 0.47 0.44 0.48 0.53 0.56 0.60 0.62
0.07 0.10 0.23 0.59 1.02 1.06 0.91 0.47 0.35 0.32 0.29 0.40 0.47 0.39 0.33 0.36 0.26 0.24 0.25 0.21 0.09 0.04 0.04 0.08 0.23 0.27 0.25 0.27 0.31 0.29 0.30 0.32 0.36 0.35 0.35 0.34 0.35 0.36 0.38 0.40 0.42 0.46 0.46 0.48 0.54 0.58 0.52 0.49 0.53
0.08 0.13 0.37 0.75 0.65 0.59 0.57 0.33 0.29 0.35 0.43 0.62 0.71 0.48 0.38 0.46 0.30 0.18 0.15 0.13 0.11 0.05 0.04 0.10 0.20 0.22 0.21 0.23 0.28 0.27 0.24 0.28 0.35 0.33 0.32 0.33 0.36 0.39 0.41 0.44 0.48 0.53 0.61 0.60 0.61 0.56 0.46 0.44 0.48
0.09 0.18 0.40 0.47 0.27 0.25 0.32 0.23 0.29 0.39 0.67 0.80 0.82 0.65 0.50 0.44 0.31 0.22 0.12 0.10 0.10 0.07 0.06 0.11 0.19 0.20 0.20 0.20 0.22 0.23 0.23 0.27 0.32 0.35 0.33 0.34 0.36 0.43 0.50 0.52 0.53 0.53 0.60 0.59 0.61 0.51 0.46 0.43 0.47
0.07 0.21 0.45 0.33 0.14 0.13 0.16 0.14 0.21 0.34 0.59 0.79 0.80 0.84 0.73 0.58 0.45 0.30 0.18 0.11 0.08 0.07 0.09 0.11 0.19 0.22 0.23 0.22 0.23 0.24 0.23 0.23 0.27 0.31 0.32 0.36 0.43 0.51 0.60 0.60 0.57 0.49 0.54 0.54 0.52 0.53 0.52 0.53 0.55
0.13 0.24 0.36 0.26 0.14 0.10 0.12 0.13 0.21 0.40 0.62 0.78 0.93 1.01 0.82 0.59 0.45 0.32 0.24 0.22 0.22 0.09 0.08 0.12 0.20 0.24 0.25 0.26 0.27 0.28 0.25 0.24 0.25 0.29 0.34 0.40 0.47 0.53 0.55 0.61 0.62 0.54 0.51 0.47 0.49 0.50 0.49 0.55 0.59
0.12 0.19 0.23 0.18 0.14 0.10 0.11 0.16 0.26 0.41 0.52 0.82 1.09 1.13 0.84 0.72 0.56 0.40 0.40 0.37 0.61 0.32 0.19 0.18 0.19 0.23 0.26 0.31 0.31 0.31 0.27 0.27 0.30 0.34 0.34 0.36 0.40 0.50 0.52 0.61 0.62 0.55 0.51 0.47 0.51 0.48 0.48 0.55 0.57
0.07 0.10 0.13 0.13 0.07 0.07 0.10 0.16 0.27 0.39 0.66 0.93 0.95 1.02 1.01 0.74 0.66 0.63 0.67 0.63 0.76 0.61 0.37 0.31 0.31 0.36 0.37 0.37 0.36 0.37 0.31 0.29 0.31 0.35 0.34 0.41 0.44 0.51 0.58 0.64 0.65 0.57 0.57 0.54 0.58 0.55 0.55 0.60 0.61
0.04 0.09 0.13 0.11 0.04 0.06 0.12 0.21 0.28 0.34 0.55 0.73 0.81 0.77 0.61 0.59 0.73 0.82 0.89 0.94 0.99 0.94 0.80 0.72 0.61 0.53 0.57 0.51 0.42 0.51 0.48 0.47 0.50 0.56 0.59 0.72 0.91 0.90 0.99 0.86 0.84 0.75 0.77 0.82 0.82 0.81 0.78 0.80 0.73
0.03 0.08 0.07 0.03 0.02 0.05 0.10 0.19 0.32 0.41 0.70 1.06 1.09 1.12 0.78 0.80 0.95 1.01 1.03 0.99 1.15 1.26 1.17 1.19 0.96 0.74 0.68 0.62 0.78 1.01 0.97 1.02 1.09 1.16 1.16 1.35 1.42 1.47 1.18 1.19 1.25 1.22 1.32 1.35 1.40 1.50 1.27 1.03 0.88
0.02 0.03 0.02 0.01 0.01 0.02 0.05 0.11 0.15 0.35 0.77 1.21 1.27 1.23 1.03 1.01 1.12 1.24 1.29 1.42 1.56 1.72 1.49 1.29 1.25 1.17 1.16 1.18 1.18 1.26 1.45 1.56 1.67 1.75 1.76 1.91 1.64 1.51 1.38 1.56 1.75 1.70 1.64 1.53 1.79 1.98 1.62 1.55 1.69
0.01 0.01 0.01 0.01 0.01 0.02 0.04 0.11 0.21 0.36 0.79 1.07 0.98 0.86 0.89 1.10 1.29 1.47 1.83 2.06 2.25 2.36 2.28 2.17 1.93 1.75 1.75 1.61 1.42 1.37 1.40 1.49 1.58 1.69 1.75 1.92 2.01 1.91 1.94 2.08 1.91 1.87 1.91 2.10 2.07 2.28 2.14 1.99 1.86
0.01 0.01 0.01 0.01 0.01 0.02 0.06 0.16 0.29 0.42 0.69 0.67 0.59 0.66 1.05 1.31 1.54 1.86 2.10 2.31 2.53 2.89 3.12 3.54 3.27 2.63 2.26 1.98 1.70 1.40 1.38 1.27 1.25 1.35 1.57 1.74 1.90 2.05 2.16 1.99 1.85 1.62 1.82 2.10 2.21 2.02 2.20 2.19 2.19
0.01 0.01 0.03 0.03 0.02 0.04 0.09 0.14 0.37 0.48 0.58 0.65 0.63 0.92 1.38 1.87 2.07 2.31 2.60 3.00 3.30 3.73 3.75 3.87 4.21 3.56 2.78 2.25 1.91 1.60 1.32 1.33 1.35 1.38 1.40 1.58 1.76 1.85 1.91 1.84 1.78 1.71 1.82 2.02 2.03 2.00 2.24 2.34 2.29
0.01 0.04 0.11 0.10 0.06 0.07 0.12 0.27 0.48 0.62 0.64 0.85 0.91 1.14 1.68 2.32 2.33 2.61 2.92 3.40 3.86 4.31 4.42 4.46 4.67 4.24 3.63 3.05 2.46 1.93 1.64 1.41 1.46 1.52 1.38 1.37 1.52 1.57 1.66 1.69 1.64 1.71 1.70 1.73 1.71 1.77 1.97 1.96 1.92
0.02 0.09 0.25 0.20 0.10 0.10 0.18 0.59 0.76 0.68 0.66 0.94 1.16 1.39 1.85 2.51 2.56 2.88 3.34 3.88 4.57 4.98 5.20 5.21 4.97 4.78 4.25 3.59 3.00 2.57 2.23 1.92 1.69 1.57 1.40 1.24 1.30 1.33 1.41 1.34 1.36 1.37 1.36 1.35 1.45 1.50 1.67 1.81 1.90
0.04 0.09 0.22 0.21 0.15 0.13 0.22 0.66 0.70 0.48 0.64 0.92 1.24 1.53 1.82 2.17 2.66 3.23 3.73 4.31 5.24 6.16 6.57 6.33 5.63 5.12 4.52 3.90 3.37 3.14 2.89 2.46 2.05 1.87 1.67 1.46 1.29 1.23 1.27 1.28 1.29 1.11 1.15 1.17 1.10 1.29 1.51 1.72 1.78
0.03 0.07 0.15 0.23 0.17 0.23 0.33 0.43 0.55 0.61 0.78 1.00 1.21 1.38 1.66 1.96 2.37 3.07 3.65 4.33 5.30 6.50 7.17 7.04 6.35 5.44 4.70 4.24 3.73 3.48 3.15 2.69 2.20 1.96 1.81 1.59 1.45 1.26 1.18 1.10 1.06 0.94 1.06 1.18 1.25 1.52 1.51 1.46 1.50
0.03 0.07 0.14 0.22 0.17 0.25 0.33 0.44 0.59 0.76 0.99 1.02 1.10 1.21 1.43 1.73 2.14 2.81 3.49 4.06 4.73 5.47 6.01 5.87 5.23 4.70 4.09 3.54 2.95 2.79 2.51 2.23 1.97 1.76 1.56 1.53 1.45 1.24 1.19 1.08 1.17 1.00 1.01 1.02 1.04 1.19 1.25 1.20 1.24
0.04 0.08 0.13 0.18 0.15 0.14 0.26 0.53 0.69 0.78 0.95 0.90 0.91 0.94 1.13 1.48 2.09 2.88 3.49 3.69 3.70 3.96 4.20 3.71 3.48 3.43 3.02 2.68 2.55 2.39 2.18 1.92 1.69 1.56 1.49 1.26 1.20 1.14 1.08 1.15 1.08 1.03 1.07 1.02 1.04 1.17 1.23 1.20 1.23
0.07 0.09 0.10 0.16 0.17 0.22 0.36 0.70 0.92 0.85 0.84 0.73 0.71 0.91 1.38 1.77 2.21 2.73 2.89 2.90 2.79 2.77 2.75 2.51 2.43 2.69 2.59 2.51 2.42 2.33 2.24 2.12 1.86 1.52 1.43 1.19 1.04 1.03 1.08 1.08 1.10 1.11 0.94 1.02 1.08 1.06 1.11 1.13 1.10
0.07 0.06 0.04 0.05 0.12 0.35 0.51 0.91 1.09 1.00 0.94 0.67 0.71 1.08 1.59 1.90 2.17 2.17 1.78 1.66 1.81 1.89 1.97 2.19 2.26 2.36 2.26 2.28 2.07 1.85 1.67 1.52 1.40 1.34 1.32 1.30 1.14 1.03 0.96 1.00 1.13 1.12 0.98 1.10 0.86 0.93 1.08 1.12 0.98
0.04 0.04 0.03 0.06 0.15 0.39 0.66 1.08 1.26 1.06 0.87 0.62 0.59 0.67 1.04 1.25 1.23 1.03 0.89 0.97 1.20 1.45 1.67 2.03 2.12 2.12 2.01 1.95 1.95 1.95 1.81 1.72 1.58 1.52 1.56 1.53 1.50 1.30 1.07 0.99 1.11 1.18 1.13 1.16 1.05 1.19 1.06 0.97 0.90
0.03 0.04 0.10 0.20 0.38 0.82 0.86 0.95 1.19 1.01 0.80 0.61 0.42 0.45 0.70 0.74 0.60 0.62 0.70 0.89 1.13 1.29 1.39 1.58 1.74 1.92 1.97 1.99 2.04 1.97 1.90 1.90 1.70 1.54 1.44 1.42 1.43 1.36 1.25 1.16 1.26 1.27 1.22 1.22 1.13 1.18 1.14 1.09 1.05
0.03 0.05 0.25 0.60 0.89 1.01 0.73 0.87 1.17 0.78 0.52 0.41 0.29 0.26 0.30 0.34 0.43 0.60 0.66 0.86 0.97 1.09 1.11 1.20 1.32 1.52 1.64 1.73 1.86 1.89 1.89 1.89 1.68 1.54 1.41 1.36 1.26 1.18 1.25 1.29 1.38 1.30 1.29 1.22 1.20 1.22 1.22 1.28 1.27
0.04 0.03 0.10 0.21 0.33 0.53 0.69 1.07 1.15 0.75 0.41 0.24 0.19 0.19 0.19 0.23 0.30 0.35 0.38 0.48 0.62 0.79 0.98 1.12 1.16 1.18 1.20 1.27 1.46 1.64 1.66 1.67 1.60 1.61 1.39 1.29 1.21 1.20 1.30 1.36 1.26 1.23 1.22 1.15 1.22 1.14 1.10 1.15 1.20
0.03 0.03 0.04 0.05 0.08 0.31 0.73 1.01 0.92 0.58 0.40 0.29 0.24 0.24 0.22 0.22 0.29 0.26 0.25 0.32 0.41 0.46 0.62 0.83 0.92 0.92 0.94 1.01 1.16 1.27 1.32 1.42 1.52 1.48 1.32 1.17 1.19 1.21 1.23 1.16 1.15 1.17 1.17 1.22 1.30 1.23 1.17 1.19 1.09
0.04 0.03 0.03 0.05 0.10 0.23 0.57 1.04 1.18 0.81 0.56 0.40 0.33 0.26 0.22 0.24 0.24 0.26 0.27 0.27 0.30 0.32 0.45 0.62 0.76 0.80 0.83 0.88 0.94 0.94 1.07 1.18 1.30 1.33 1.29 1.16 1.12 1.18 1.21 1.16 1.15 1.14 1.06 1.10 1.24 1.21 1.23 1.29 1.24
0.05 0.04 0.05 0.06 0.07 0.15 0.42 0.67 0.67 0.69 0.56 0.36 0.31 0.28 0.24 0.25 0.26 0.30 0.26 0.30 0.26 0.25 0.33 0.46 0.63 0.72 0.69 0.72 0.79 0.88 0.98 1.15 1.23 1.23 1.26 1.21 1.17 1.19 1.20 1.18 1.19 1.17 1.12 1.13 1.20 1.15 1.23 1.31 1.40
0.07 0.07 0.07 0.08 0.08 0.11 0.20 0.34 0.38 0.41 0.44 0.48 0.40 0.34 0.34 0.37 0.30 0.29 0.25 0.28 0.22 0.23 0.30 0.38 0.46 0.55 0.60 0.67 0.77 0.86 0.94 1.05 1.17 1.15 1.20 1.26 1.23 1.20 1.16 1.15 1.21 1.14 1.13 1.18 1.12 1.12 1.20 1.32 1.38